| time (UTC) | temp F | wind direction | speed MPH | gust MPH | rain 1hr in | rain 24hr in | rain mn in | humidity % | barometer mb |
| 20260906092513 | 48 | 23 | 0.0 | 0.0 | 0.00 | 0.00 | 0.00 | 91 | 1001.0 |
| 20260906091010 | 49 | 19 | 0.0 | 0.0 | 0.00 | 0.00 | 0.00 | 91 | 1001.0 |
| 20260906084011 | 49 | 23 | 0.0 | 0.0 | 0.00 | 0.00 | 0.00 | 91 | 1001.0 |
| 20260906082510 | 49 | 8 | 0.0 | 0.0 | 0.00 | 0.00 | 0.00 | 90 | 1001.0 |
| 20260906081010 | 49 | 18 | 0.0 | 0.0 | 0.00 | 0.00 | 0.00 | 90 | 1001.0 |
| 20260906075510 | 50 | 0 | 0.0 | 0.0 | 0.00 | 0.00 | 0.00 | 90 | 1001.4 |
| 20260906074011 | 50 | 10 | 0.0 | 0.0 | 0.00 | 0.00 | 0.00 | 90 | 1001.0 |
| 20260906072510 | 50 | 19 | 0.0 | 0.0 | 0.00 | 0.00 | 0.00 | 89 | 1001.0 |
| 20260906071011 | 51 | 359 | 0.0 | 0.0 | 0.00 | 0.00 | 0.00 | 89 | 1001.0 |
| 20260906065510 | 51 | 7 | 0.0 | 0.0 | 0.00 | 0.00 | 0.00 | 89 | 1001.0 |
| 20260906064010 | 51 | 6 | 0.0 | 0.0 | 0.00 | 0.00 | 0.00 | 88 | 1001.0 |
| 20260906062509 | 52 | 356 | 0.0 | 0.0 | 0.00 | 0.00 | 0.00 | 87 | 1001.0 |
| 20260906061012 | 52 | 350 | 0.0 | 0.0 | 0.00 | 0.00 | 0.00 | 88 | 1001.0 |
| 20260906060010 | 52 | 13 | 0.0 | 0.0 | 0.00 | 0.00 | 0.00 | 87 | 1001.0 |
| 20260906053010 | 53 | 3 | 0.0 | 0.0 | 0.00 | 0.00 | 0.00 | 87 | 1001.0 |
| 20260906051509 | 53 | 351 | 0.0 | 0.0 | 0.00 | 0.00 | 0.00 | 87 | 1001.0 |
| 20260906050010 | 54 | 18 | 0.0 | 0.0 | 0.00 | 0.00 | 0.00 | 86 | 1001.0 |
| 20260906044510 | 54 | 329 | 0.0 | 0.0 | 0.00 | 0.00 | 0.00 | 85 | 1001.0 |
| 20260906041509 | 56 | 12 | 0.0 | 0.0 | 0.00 | 0.00 | 0.00 | 84 | 1001.0 |
| 20260906031510 | 58 | 342 | 0.0 | 0.0 | 0.00 | 0.00 | 0.00 | 82 | 1000.7 |
| 20260906030009 | 58 | 351 | 0.0 | 0.0 | 0.00 | 0.00 | 0.00 | 82 | 1000.7 |
| 20260906024509 | 59 | 332 | 0.0 | 0.0 | 0.00 | 0.00 | 0.00 | 81 | 1000.7 |
| 20260906023009 | 59 | 311 | 0.0 | 0.0 | 0.00 | 0.00 | 0.00 | 79 | 1000.7 |
| 20260906021509 | 59 | 343 | 0.0 | 0.0 | 0.00 | 0.00 | 0.00 | 78 | 1000.7 |
| 20260906020009 | 60 | 332 | 0.0 | 0.0 | 0.00 | 0.00 | 0.00 | 78 | 1000.7 |
| 20260906014509 | 60 | 330 | 0.0 | 0.0 | 0.00 | 0.00 | 0.00 | 78 | 1000.7 |
| 20260906013009 | 61 | 356 | 0.0 | 0.0 | 0.00 | 0.00 | 0.00 | 78 | 1000.7 |
| 20260906011509 | 61 | 344 | 0.0 | 0.0 | 0.00 | 0.00 | 0.00 | 78 | 1000.7 |
| 20260906010009 | 61 | 337 | 0.0 | 0.0 | 0.00 | 0.00 | 0.00 | 77 | 1000.7 |
| 20260906004509 | 62 | 337 | 0.0 | 0.0 | 0.00 | 0.00 | 0.00 | 76 | 1001.0 |
| 20260906003009 | 62 | 346 | 0.0 | 0.0 | 0.00 | 0.00 | 0.00 | 75 | 1000.7 |
| 20260906001509 | 63 | 355 | 0.0 | 0.0 | 0.00 | 0.00 | 0.00 | 72 | 1000.7 |
| 20260906000008 | 64 | 349 | 0.0 | 0.0 | 0.00 | 0.00 | 0.00 | 73 | 1001.0 |
| 20260905233009 | 65 | 47 | 0.0 | 2.0 | 0.00 | 0.00 | 0.01 | 69 | 1001.0 |
| 20260905231508 | 65 | 11 | 0.0 | 0.0 | 0.00 | 0.00 | 0.01 | 72 | 1001.0 |
| 20260905230008 | 65 | 24 | 0.0 | 1.0 | 0.00 | 0.00 | 0.01 | 68 | 1001.4 |
| 20260905224508 | 66 | 352 | 0.0 | 0.0 | 0.00 | 0.00 | 0.01 | 68 | 1001.4 |
| 20260905221508 | 67 | 80 | 2.0 | 3.0 | 0.00 | 0.00 | 0.01 | 67 | 1001.4 |
| 20260905220008 | 68 | 8 | 0.0 | 3.0 | 0.00 | 0.00 | 0.01 | 68 | 1001.4 |
| 20260905214509 | 69 | 62 | 2.0 | 3.0 | 0.00 | 0.00 | 0.01 | 61 | 1001.4 |
| 20260905213008 | 70 | 71 | 2.0 | 4.0 | 0.00 | 0.00 | 0.01 | 57 | 1001.4 |
| 20260905211508 | 70 | 354 | 2.0 | 3.0 | 0.00 | 0.00 | 0.01 | 59 | 1001.4 |
| 20260905210009 | 70 | 53 | 0.0 | 3.0 | 0.00 | 0.00 | 0.01 | 63 | 1001.4 |
| 20260905204508 | 69 | 5 | 2.0 | 3.0 | 0.00 | 0.00 | 0.01 | 62 | 1001.4 |
| 20260905203008 | 70 | 36 | 2.0 | 6.0 | 0.00 | 0.00 | 0.01 | 60 | 1001.4 |
| 20260905200009 | 70 | 24 | 0.0 | 1.0 | 0.00 | 0.00 | 0.01 | 67 | 1001.0 |
| 20260905194507 | 69 | 337 | 0.0 | 0.0 | 0.00 | 0.00 | 0.01 | 68 | 1001.0 |
| 20260905193008 | 69 | 39 | 0.0 | 2.0 | 0.00 | 0.00 | 0.01 | 67 | 1001.4 |
| 20260905191508 | 68 | 44 | 0.0 | 2.0 | 0.00 | 0.00 | 0.01 | 67 | 1001.4 |
| 20260905190009 | 66 | 77 | 0.0 | 1.0 | 0.00 | 0.00 | 0.01 | 73 | 1001.7 |
| 20260905184507 | 65 | 39 | 0.0 | 2.0 | 0.00 | 0.00 | 0.01 | 74 | 1001.7 |
| 20260905183007 | 65 | 16 | 0.0 | 0.0 | 0.00 | 0.00 | 0.01 | 78 | 1001.7 |
| 20260905181507 | 64 | 342 | 0.0 | 0.0 | 0.00 | 0.00 | 0.01 | 80 | 1001.7 |
| 20260905180008 | 62 | 13 | 0.0 | 0.0 | 0.00 | 0.00 | 0.01 | 84 | 1001.7 |
| 20260905174508 | 60 | 32 | 0.0 | 0.0 | 0.00 | 0.00 | 0.01 | 89 | 1001.7 |
| 20260905173008 | 58 | 302 | 0.0 | 0.0 | 0.00 | 0.00 | 0.01 | 93 | 1001.7 |
| 20260905172007 | 58 | 351 | 0.0 | 0.0 | 0.00 | 0.00 | 0.01 | 94 | 1001.7 |
| 20260905170507 | 56 | 306 | 0.0 | 0.0 | 0.00 | 0.00 | 0.01 | 94 | 1001.7 |
| 20260905165008 | 55 | 331 | 0.0 | 0.0 | 0.00 | 0.00 | 0.01 | 94 | 1001.7 |
| 20260905163508 | 53 | 339 | 0.0 | 0.0 | 0.00 | 0.00 | 0.01 | 94 | 1001.7 |
| 20260905162007 | 52 | 342 | 0.0 | 0.0 | 0.00 | 0.00 | 0.01 | 94 | 1001.7 |
| 20260905160507 | 50 | 342 | 0.0 | 0.0 | 0.00 | 0.00 | 0.01 | 94 | 1001.7 |
| 20260905155007 | 49 | 347 | 0.0 | 0.0 | 0.00 | 0.00 | 0.01 | 93 | 1001.7 |
| 20260905153507 | 48 | 358 | 0.0 | 0.0 | 0.00 | 0.00 | 0.01 | 93 | 1001.7 |
| 20260905152007 | 47 | 358 | 0.0 | 0.0 | 0.00 | 0.00 | 0.01 | 93 | 1001.7 |
| 20260905150507 | 47 | 0 | 0.0 | 0.0 | 0.00 | 0.00 | 0.01 | 93 | 1001.4 |
| 20260905145007 | 47 | 359 | 0.0 | 0.0 | 0.00 | 0.00 | 0.01 | 93 | 1001.4 |
| 20260905143507 | 47 | 2 | 0.0 | 0.0 | 0.00 | 0.00 | 0.01 | 93 | 1001.7 |
| 20260905142006 | 46 | 11 | 0.0 | 0.0 | 0.00 | 0.00 | 0.01 | 93 | 1001.4 |
| 20260905133507 | 47 | 14 | 0.0 | 0.0 | 0.00 | 0.00 | 0.01 | 93 | 1001.0 |
| 20260905132007 | 47 | 4 | 0.0 | 0.0 | 0.00 | 0.00 | 0.01 | 93 | 1001.0 |
| 20260905130507 | 47 | 359 | 0.0 | 0.0 | 0.00 | 0.00 | 0.01 | 93 | 1001.0 |
| 20260905125006 | 47 | 28 | 0.0 | 0.0 | 0.00 | 0.00 | 0.01 | 93 | 1001.0 |
| 20260905123007 | 47 | 15 | 0.0 | 0.0 | 0.00 | 0.00 | 0.01 | 93 | 1001.0 |
| 20260905121507 | 47 | 21 | 0.0 | 0.0 | 0.00 | 0.00 | 0.01 | 93 | 1001.0 |
| 20260905120006 | 48 | 5 | 0.0 | 0.0 | 0.00 | 0.00 | 0.01 | 92 | 1001.0 |
| 20260905114506 | 48 | 7 | 0.0 | 0.0 | 0.00 | 0.00 | 0.01 | 92 | 1001.0 |
| 20260905113007 | 48 | 13 | 0.0 | 0.0 | 0.00 | 0.00 | 0.01 | 92 | 1001.0 |
| 20260905111507 | 48 | 8 | 0.0 | 0.0 | 0.00 | 0.00 | 0.01 | 92 | 1001.4 |
| 20260905110007 | 48 | 13 | 0.0 | 0.0 | 0.00 | 0.00 | 0.01 | 92 | 1001.0 |
| 20260905104507 | 49 | 358 | 0.0 | 0.0 | 0.00 | 0.00 | 0.01 | 92 | 1001.0 |
| 20260905103006 | 49 | 359 | 0.0 | 0.0 | 0.00 | 0.00 | 0.01 | 92 | 1001.0 |
| 20260905101506 | 49 | 19 | 0.0 | 0.0 | 0.00 | 0.00 | 0.01 | 92 | 1001.0 |
| 20260905100006 | 49 | 21 | 0.0 | 0.0 | 0.00 | 0.00 | 0.01 | 92 | 1001.0 |
| 20260905094506 | 49 | 9 | 0.0 | 0.0 | 0.00 | 0.00 | 0.01 | 92 | 1001.0 |